Regional Weather Roundup
Issued by NWS

Home | Current Version | Previous Version | Text Only | Print | Product List | Glossary Off
Versions: 1 2 3 4 5 6 7 8 9 10 11 12 13 14 15 16 17 18 19 20 21 22 23 24 25 26 27 28 29 30 31 32 33 34 35 36 37 38 39 40 41 42 43 44 45 46 47 48 49 50

000
ASUS43 KOAX 221210
RWRNE

WEATHER ROUNDUP FOR NEBRASKA
NATIONAL WEATHER SERVICE OMAHA NE
700 AM CDT TUE APR 22 2014

NOTES: SATELLITE DATA IS BEING USED TO AUGMENT CLOUD COVER ABOVE
       12000 FEET.
       "FAIR" INDICATES FEW OR NO CLOUDS BELOW 12,000 FEET WITH NO
       SIGNIFICANT WEATHER AND/OR OBSTRUCTIONS TO VISIBILITY.

  * THESE STATIONS DO NOT REPORT WEATHER SUCH AS RAIN...SNOW OR FOG.

NEZ001>004-019>022-054>056-221300-
NEBRASKA PANHANDLE

CITY           SKY/WX    TMP DP  RH WIND       PRES   REMARKS
SCOTTSBLUFF    PTCLDY    44  31  60 E10       29.98F
6HR MIN TEMP:  44; 6HR MAX TEMP:  47;

ALLIANCE       PTCLDY    45  31  58 S21       29.99F
6HR MIN TEMP:  38; 6HR MAX TEMP:  46;

CHADRON        PTCLDY    51  31  46 S30G37    29.90F
6HR MIN TEMP:  51; 6HR MAX TEMP:  56;

KIMBALL        MOCLDY    43  31  63 S12       30.01S
SIDNEY         MOCLDY    50  32  50 S28       30.04F
6HR MIN TEMP:  44; 6HR MAX TEMP:  50;

$$

NEZ057>060-069>072-079>082-221300-
SOUTHWEST NEBRASKA

CITY           SKY/WX    TMP DP  RH WIND       PRES   REMARKS
NORTH PLATTE   PTCLDY    36  28  73 E8        30.10F WCI  30
6HR MIN TEMP:  34; 6HR MAX TEMP:  41;

IMPERIAL       CLEAR     43  28  55 SE9       30.10F
6HR MIN TEMP:  40; 6HR MAX TEMP:  50;

LEXINGTON      CLEAR     42  32  67 SE6       30.13S
MCCOOK         CLEAR     45  29  53 SE8       30.13S
6HR MIN TEMP:  43; 6HR MAX TEMP:  50;

OGALLALA       PTCLDY    45  28  51 CALM      30.08S
$$

NEZ005>010-023>029-035>040-094-221300-
NORTH CENTRAL NEBRASKA

CITY           SKY/WX    TMP DP  RH WIND       PRES   REMARKS
VALENTINE      MOCLDY    48  28  46 S12       30.06F
6HR MIN TEMP:  42; 6HR MAX TEMP:  49;

AINSWORTH      MOCLDY    44  32  63 S12       30.08F
BROKEN BOW     PTCLDY    34  29  82 CALM      30.12F
6HR MIN TEMP:  31; 6HR MAX TEMP:  39;

O`NEILL        CLEAR     38  29  69 SE6       30.12F WCI  34
ORD            CLEAR     31  26  82 CALM      30.13S
6HR MIN TEMP:  29; 6HR MAX TEMP:  39;

THEDFORD       MOCLDY    47  28  46 S12       30.09F
$$

NEZ041-046>049-061>064-073>077-083>087-221300-
SOUTH CENTRAL NEBRASKA

CITY           SKY/WX    TMP DP  RH WIND       PRES   REMARKS
GRAND ISLAND   CLEAR     41  31  67 S3        30.16R
6HR MIN TEMP:  37; 6HR MAX TEMP:  50;

AURORA         CLEAR     39  31  72 E6        30.15R WCI  35
HASTINGS       CLEAR     38  29  70 CALM      30.14F
6HR MIN TEMP:  37; 6HR MAX TEMP:  50;

HEBRON         CLEAR     35  31  87 CALM      30.17R
HOLDREGE       CLEAR     40  31  70 SE7       30.13F WCI  35
KEARNEY *      MOCLDY    41  30  65 CALM      30.15R
YORK           CLEAR     37  32  81 E5        30.16R WCI  34
$$

NEZ011>018-030>034-042>045-221300-
NORTHEAST NEBRASKA

CITY           SKY/WX    TMP DP  RH WIND       PRES   REMARKS
NORFOLK        CLEAR     37  30  75 E3        30.14S
6HR MIN TEMP:  37; 6HR MAX TEMP:  49;

ALBION         CLEAR     33  29  85 CALM      30.15S
BLAIR          CLEAR     43  30  60 NE6       30.14S
COLUMBUS *     CLEAR     36  25  64 E3        30.16S
FREMONT        CLEAR     36  32  84 CALM      30.16S
TEKAMAH        CLEAR     33  26  75 N5        30.16S WCI  29
6HR MIN TEMP:  32; 6HR MAX TEMP:  44;

$$

NEZ050>053-065>068-078-088>093-221300-
SOUTHEAST NEBRASKA

CITY           SKY/WX    TMP DP  RH WIND       PRES   REMARKS
LINCOLN        CLEAR     41  31  67 CALM      30.17R
6HR MIN TEMP:  38; 6HR MAX TEMP:  51;

OMAHA EPPLEY   CLEAR     41  33  73 NW3       30.16S
6HR MIN TEMP:  38; 6HR MAX TEMP:  50;

BEATRICE       CLEAR     42  32  66 CALM      30.15R
FALLS CITY     CLEAR     44  32  62 N5        30.15R
6HR MIN TEMP:  43; 6HR MAX TEMP:  54;

NEBRASKA CITY  CLEAR     42  31  67 NE5       30.16R
PLATTSMOUTH    CLEAR     44  29  57 NE6       30.16R
$$

NEZ044-045-051>053-067-221300-
OMAHA AREA

CITY           SKY/WX    TMP DP  RH WIND       PRES   REMARKS
OMAHA EPPLEY   CLEAR     41  33  73 NW3       30.16S
6HR MIN TEMP:  38; 6HR MAX TEMP:  50;

BLAIR          CLEAR     43  30  60 NE6       30.14S
FREMONT        CLEAR     36  32  84 CALM      30.16S
MILLARD        CLEAR     41  32  71 CALM      30.15F
OFFUTT AFB     CLEAR     40  33  75 NE5       30.16R
PLATTSMOUTH    CLEAR     44  29  57 NE6       30.16R
WAHOO          FAIR      40  32  71 CALM      30.15S
$$



USA.gov is the U.S. government's official web portal to all federal, state and local government web resources and services.